M I D A S
Marine Information and Data Acquisition System
Tripno 1680 of the Zeeleeuw from 2009-04-23 11:40:05 to 2009-04-23 13:59:39
Back to CruiseResearch ActivitiesStationsMapUnderway DataData graphs

EquipmentUnitsComments
TimeDGPSUTC
LatitudeDGPSDM.mWGS84
LongitudeDGPSDM.mWGS84
SpeedMeteo Stationm/sRelative wind speed
DirectionMeteo StationdegRelative wind direction
TemperatureMeteo Stationdeg CelciusAir temperature
PressureMeteo StationPaAtmospheric pressure
HumidityMeteo Station%Relative humidity
Missing or incorrect values are displayed as -999
Metereological data collected by the RV Zeeleeuw from 2009-04-23 07:44:55 to 2009-04-23 14:07:14
Time Latitude Longitude Speed Direction Temperature Pressure Humidity
2009-04-23 07:46 51°13.678 2°55.898 1.7 1 10.3 102510 65
2009-04-23 07:47 51°13.69 2°55.821 1.2 10 10.2 102510 65
2009-04-23 07:48 51°13.693 2°55.759 2.2 24 10.1 102510 66
2009-04-23 07:49 51°13.704 2°55.761 1.8 38 10 102510 65
2009-04-23 07:50 51°13.716 2°55.754 0.7 75 10 102510 65
2009-04-23 07:51 51°13.787 2°55.674 1.2 280 10 102520 65
2009-04-23 07:51 51°13.895 2°55.58 1.6 279 10.1 102520 65
2009-04-23 07:52 51°14.021 2°55.489 1.6 282 10.2 102520 64
2009-04-23 07:54 51°14.156 2°55.387 1.8 283 10.2 102520 64
2009-04-23 07:55 51°14.271 2°55.239 2.2 280 10.3 102520 64
2009-04-23 07:56 51°14.367 2°55.043 3.3 286 10.4 102520 64
2009-04-23 07:56 51°14.443 2°54.804 4 279 10.4 102530 62
2009-04-23 07:58 51°14.522 2°54.537 3.3 285 10.3 102520 59
2009-04-23 07:59 51°14.582 2°54.364 2.4 281 10.4 102520 61
2009-04-23 08:00 51°14.643 2°54.165 3.7 279 10.5 102520 61
2009-04-23 08:01 51°14.726 2°53.899 4.1 284 10.5 102520 59
2009-04-23 08:01 51°14.814 2°53.618 5.2 280 10.4 102530 61
2009-04-23 08:03 51°14.904 2°53.327 4.6 279 10.3 102530 62
2009-04-23 08:04 51°14.988 2°53.035 4.8 285 10.1 102530 61
2009-04-23 08:05 51°15.073 2°52.743 5.5 286 10.1 102530 62
2009-04-23 08:05 51°15.157 2°52.453 6.5 287 10 102530 62
2009-04-23 08:07 51°15.241 2°52.152 5.4 283 10 102530 64
2009-04-23 08:07 51°15.322 2°51.86 6 285 9.9 102520 64
2009-04-23 08:09 51°15.331 2°51.536 7 287 9.8 102530 63
2009-04-23 08:10 51°15.264 2°51.23 5.6 285 9.8 102520 63
2009-04-23 08:11 51°15.21 2°51.033 4.7 283 9.8 102530 65
2009-04-23 08:12 51°15.163 2°50.922 4 284 9.8 102530 66
2009-04-23 08:12 51°15.12 2°50.858 3.5 277 9.9 102530 67
2009-04-23 08:14 51°15.078 2°50.824 3.2 280 9.9 102530 68
2009-04-23 08:14 51°15.036 2°50.801 3.5 277 9.9 102540 66
2009-04-23 08:16 51°14.994 2°50.783 2.6 286 9.8 102530 65
2009-04-23 08:17 51°14.939 2°50.76 3.6 283 9.9 102530 66
2009-04-23 08:18 51°14.878 2°50.717 4.9 286 9.9 102530 66
2009-04-23 08:19 51°14.821 2°50.656 4.3 285 9.9 102530 66
2009-04-23 08:20 51°14.773 2°50.586 3.4 281 9.9 102520 66
2009-04-23 08:21 51°14.73 2°50.514 3.4 281 9.9 102530 67
2009-04-23 08:22 51°14.69 2°50.445 3 279 9.9 102520 67
2009-04-23 08:23 51°14.65 2°50.377 2.4 283 10 102520 66
2009-04-23 08:24 51°14.612 2°50.308 2.3 285 10 102530 67
2009-04-23 08:25 51°14.573 2°50.24 2.5 285 10.1 102530 66
2009-04-23 08:26 51°14.534 2°50.172 3.6 285 10.2 102520 66
2009-04-23 08:27 51°14.496 2°50.104 3.3 285 10.3 102520 65
2009-04-23 08:28 51°14.464 2°50.03 3.3 286 10.4 102520 64
2009-04-23 08:29 51°14.431 2°49.95 2.6 281 10.5 102520 63
2009-04-23 08:30 51°14.396 2°49.868 3 282 10.6 102520 62
2009-04-23 08:30 51°14.361 2°49.785 3.1 284 10.6 102520 60
2009-04-23 08:32 51°14.326 2°49.701 2.3 284 10.7 102520 60
2009-04-23 08:33 51°14.29 2°49.618 2.9 285 10.7 102520 61
2009-04-23 08:34 51°14.254 2°49.535 4 283 10.8 102520 61
2009-04-23 08:35 51°14.219 2°49.453 2.8 277 10.8 102520 60
2009-04-23 08:36 51°14.183 2°49.371 3.8 286 10.8 102520 60
2009-04-23 08:37 51°14.147 2°49.29 2.3 284 10.8 102520 59
2009-04-23 08:38 51°14.114 2°49.207 3.3 285 10.8 102520 59
2009-04-23 08:39 51°14.082 2°49.123 3.5 279 10.8 102520 60
2009-04-23 08:40 51°14.052 2°49.039 3.3 280 10.9 102520 60
2009-04-23 08:41 51°14.021 2°48.957 2.7 281 10.9 102510 61
2009-04-23 08:42 51°13.99 2°48.876 3.9 284 10.8 102520 61
2009-04-23 08:43 51°13.96 2°48.797 4.1 282 10.8 102520 61
2009-04-23 08:44 51°13.93 2°48.717 3.6 278 10.8 102510 62
2009-04-23 08:45 51°13.9 2°48.637 3.4 281 10.8 102520 59
2009-04-23 08:46 51°13.871 2°48.558 2.9 283 10.8 102520 59
2009-04-23 08:47 51°13.841 2°48.479 3.1 279 10.8 102520 59
2009-04-23 08:48 51°13.812 2°48.399 2.8 284 10.9 102510 60
2009-04-23 08:49 51°13.786 2°48.32 3.8 283 10.9 102510 60
2009-04-23 08:50 51°13.766 2°48.242 3.3 283 10.9 102500 58
2009-04-23 08:51 51°13.75 2°48.161 3.5 281 11 102510 58
2009-04-23 08:52 51°13.742 2°48.086 2.6 283 11 102500 57
2009-04-23 08:53 51°13.738 2°48.023 2.6 285 11.1 102500 58
2009-04-23 08:54 51°13.734 2°47.97 1.8 277 11.2 102500 58
2009-04-23 08:55 51°13.73 2°47.93 2.9 277 11.2 102500 56
2009-04-23 08:56 51°13.726 2°47.89 2.2 287 11.2 102510 58
2009-04-23 08:57 51°13.751 2°47.83 0.5 359 11.3 102510 59
2009-04-23 08:58 51°13.844 2°47.857 3 356 11.3 102510 57
2009-04-23 08:59 51°14.01 2°47.932 5 279 10.9 102500 57
2009-04-23 09:00 51°14.194 2°48.048 5.4 286 10.6 102510 58
2009-04-23 09:01 51°14.378 2°48.179 4.7 279 10.6 102510 58
2009-04-23 09:02 51°14.561 2°48.318 4.4 280 10.5 102510 58
2009-04-23 09:03 51°14.749 2°48.444 4.8 281 10.5 102510 59
2009-04-23 09:04 51°14.937 2°48.571 5.4 284 10.5 102500 59
2009-04-23 09:05 51°15.118 2°48.699 4.2 282 10.5 102510 59
2009-04-23 09:06 51°15.28 2°48.821 3.9 285 10.5 102510 60
2009-04-23 09:07 51°15.437 2°48.943 5.1 277 10.5 102510 59
2009-04-23 09:08 51°15.591 2°49.066 4.9 284 10.5 102510 59
2009-04-23 09:09 51°15.728 2°49.266 6 279 10.5 102510 60
2009-04-23 09:10 51°15.881 2°49.464 5.8 284 10.5 102510 59
2009-04-23 09:11 51°16.023 2°49.58 3.9 285 10.5 102510 59
2009-04-23 09:12 51°16.15 2°49.667 3.4 286 10.4 102520 61
2009-04-23 09:13 51°16.276 2°49.757 3.3 279 10.3 102520 61
2009-04-23 09:14 51°16.385 2°49.878 3.6 281 10.3 102510 62
2009-04-23 09:15 51°16.441 2°50.003 3.6 286 10.3 102520 63
2009-04-23 09:16 51°16.376 2°50.084 3.2 284 10.4 102520 61
2009-04-23 09:17 51°16.283 2°50 4.2 286 10.6 102520 60
2009-04-23 09:18 51°16.299 2°49.87 2.8 279 10.8 102510 60
2009-04-23 09:19 51°16.362 2°49.975 3.5 279 10.8 102520 59
2009-04-23 09:20 51°16.28 2°50.075 4.3 283 10.7 102510 60
2009-04-23 09:21 51°16.147 2°50.111 4.6 281 10.7 102520 60
2009-04-23 09:22 51°16.061 2°50.168 1.2 277 10.8 102520 59
2009-04-23 09:23 51°16.056 2°50.191 0.6 281 11 102520 60
2009-04-23 09:24 51°16.054 2°50.212 0.2 282 11.1 102520 58
2009-04-23 09:25 51°16.053 2°50.236 0.8 284 11.4 102520 58
2009-04-23 09:26 51°16.051 2°50.26 0.8 277 11.7 102520 57
2009-04-23 09:27 51°16.049 2°50.286 0.9 281 12 102520 55
2009-04-23 09:28 51°16.046 2°50.31 0.8 281 12.2 102510 55
2009-04-23 09:29 51°16.043 2°50.335 1.1 286 12.5 102510 54
2009-04-23 09:30 51°16.04 2°50.359 0.9 278 12.8 102510 52
2009-04-23 09:31 51°16.036 2°50.385 1.1 281 13.1 102510 51
2009-04-23 09:32 51°16.027 2°50.412 1.1 281 13.4 102500 51
2009-04-23 09:33 51°16.007 2°50.44 1.2 280 13.6 102510 51
2009-04-23 09:34 51°15.98 2°50.473 1.4 281 13.8 102500 50
2009-04-23 09:35 51°15.945 2°50.514 1.9 283 13.9 102510 50
2009-04-23 09:36 51°15.897 2°50.58 2.8 278 13.8 102500 48
2009-04-23 09:37 51°15.854 2°50.685 3.1 279 13.3 102500 49
2009-04-23 09:38 51°15.817 2°50.811 2.8 284 13 102500 50
2009-04-23 09:39 51°15.777 2°50.94 3.8 278 12.6 102500 51
2009-04-23 09:40 51°15.739 2°51.07 3.6 280 12.5 102500 51
2009-04-23 09:41 51°15.699 2°51.201 5 280 12.4 102490 51
2009-04-23 09:42 51°15.661 2°51.33 5.6 284 12.4 102490 50
2009-04-23 09:43 51°15.626 2°51.459 4.9 280 12.3 102490 50
2009-04-23 09:44 51°15.597 2°51.587 4.6 280 12.3 102480 51
2009-04-23 09:45 51°15.583 2°51.725 4.1 279 12.2 102490 51
2009-04-23 09:46 51°15.576 2°51.868 4.3 285 12.2 102480 50
2009-04-23 09:47 51°15.567 2°52.011 4.9 282 12.1 102490 50
2009-04-23 09:48 51°15.557 2°52.155 4 278 12.1 102480 50
2009-04-23 09:49 51°15.548 2°52.3 3.8 284 12.1 102480 51
2009-04-23 09:50 51°15.539 2°52.445 5.2 278 12 102480 51
2009-04-23 09:51 51°15.528 2°52.59 4.1 283 12.1 102480 50
2009-04-23 09:51 51°15.519 2°52.733 4.1 285 12 102490 49
2009-04-23 09:52 51°15.509 2°52.878 4.2 278 12 102480 49
2009-04-23 09:53 51°15.5 2°53.025 4.1 280 12.1 102490 49
2009-04-23 09:54 51°15.49 2°53.17 4.1 280 12.2 102490 50
2009-04-23 09:55 51°15.469 2°53.306 5.1 282 12.1 102480 49
2009-04-23 09:57 51°15.436 2°53.429 4 280 12.2 102480 48
2009-04-23 09:58 51°15.404 2°53.552 4.3 279 12.1 102480 48
2009-04-23 09:58 51°15.374 2°53.676 4.1 285 12.2 102480 50
2009-04-23 09:59 51°15.345 2°53.801 4.1 280 12.3 102480 52
2009-04-23 10:01 51°15.318 2°53.918 3.5 284 12.3 102480 52
2009-04-23 10:02 51°15.282 2°54.028 4.6 284 12.3 102480 49
2009-04-23 10:02 51°15.216 2°54.126 5 278 12.3 102480 49
2009-04-23 10:03 51°15.132 2°54.232 4.4 286 12.3 102480 51
2009-04-23 10:05 51°15.046 2°54.338 3.6 286 12.3 102480 49
2009-04-23 10:05 51°14.958 2°54.441 4.1 284 12.4 102480 49
2009-04-23 10:07 51°14.865 2°54.549 5 285 12.4 102480 50
2009-04-23 10:07 51°14.776 2°54.652 4.1 280 12.4 102480 49
2009-04-23 10:08 51°14.684 2°54.758 4.2 285 12.4 102480 49
2009-04-23 10:10 51°14.588 2°54.859 4.5 281 12.4 102480 49
2009-04-23 10:10 51°14.494 2°54.96 6.6 286 12.4 102480 48
2009-04-23 10:12 51°14.398 2°55.076 4.6 282 12.4 102480 48
2009-04-23 10:12 51°14.307 2°55.193 6.4 279 12.5 102480 48
2009-04-23 10:13 51°14.22 2°55.317 4.8 284 12.6 102480 47
2009-04-23 10:15 51°14.127 2°55.411 5.5 286 12.7 102480 46
2009-04-23 10:16 51°14.027 2°55.485 5.7 282 12.7 102480 48
2009-04-23 10:16 51°13.928 2°55.556 5.4 283 12.7 102470 46
2009-04-23 10:17 51°13.827 2°55.63 5.4 285 12.8 102480 47
2009-04-23 10:19 51°13.752 2°55.724 5.7 279 12.8 102480 46
2009-04-23 10:20 51°13.707 2°55.816 3.5 284 12.8 102480 46
2009-04-23 10:21 51°13.679 2°55.902 3.2 280 12.8 102480 46
2009-04-23 10:22 51°13.665 2°55.953 1.2 280 12.8 102480 45
2009-04-23 10:22 51°13.662 2°55.958 0.6 352 12.8 102480 46
2009-04-23 10:24 51°13.663 2°55.959 -999 282 12.9 102480 46
2009-04-23 10:24 51°13.662 2°55.958 1.9 276 13.2 102480 45
2009-04-23 10:26 51°13.662 2°55.958 1.7 285 13.4 102480 45
2009-04-23 10:27 51°13.662 2°55.958 0.3 281 13.6 102480 43
2009-04-23 10:27 51°13.662 2°55.958 2.3 284 13.8 102480 43
2009-04-23 10:28 51°13.662 2°55.959 2 281 14 102480 43
2009-04-23 10:30 51°13.663 2°55.96 1.9 279 14.1 102480 42
2009-04-23 10:31 51°13.663 2°55.959 2 284 14.2 102480 43
2009-04-23 10:32 51°13.663 2°55.96 1.9 281 14.4 102480 43
2009-04-23 10:33 51°13.663 2°55.96 1.1 281 14.5 102480 43
2009-04-23 10:34 51°13.664 2°55.961 -999 282 14.7 102480 42
2009-04-23 10:35 51°13.663 2°55.959 0.1 349 14.7 102470 42
2009-04-23 10:35 51°13.662 2°55.959 1 279 14.8 102470 45
2009-04-23 10:37 51°13.663 2°55.961 1.2 281 14.8 102460 43
2009-04-23 10:37 51°13.663 2°55.961 1.7 287 14.9 102460 42
2009-04-23 10:39 51°13.664 2°55.962 2.8 279 15.1 102460 42
2009-04-23 10:40 51°13.664 2°55.962 1.9 281 15.1 102460 41
2009-04-23 10:40 51°13.664 2°55.961 1.6 285 15.2 102460 41
2009-04-23 10:42 51°13.663 2°55.959 2.3 284 15.2 102460 41
2009-04-23 10:43 51°13.663 2°55.96 1.8 287 15.2 102460 41
2009-04-23 10:44 51°13.663 2°55.96 1.8 279 15 102460 42
2009-04-23 10:45 51°13.663 2°55.96 1.4 280 15 102460 42
2009-04-23 10:45 51°13.663 2°55.96 0.7 285 15.1 102460 42
2009-04-23 10:47 51°13.663 2°55.961 0.4 281 15.2 102460 41
2009-04-23 10:48 51°13.664 2°55.961 1 277 15.3 102460 41
2009-04-23 10:49 51°13.663 2°55.961 0.7 280 15.4 102460 41
2009-04-23 10:50 51°13.663 2°55.96 1.5 277 15.5 102460 40
2009-04-23 10:51 51°13.664 2°55.96 2.7 287 15.5 102450 40
2009-04-23 10:52 51°13.664 2°55.96 1.9 283 15.4 102460 39
2009-04-23 10:53 51°13.663 2°55.96 1.2 281 15.2 102460 39
2009-04-23 10:54 51°13.663 2°55.959 0.2 78 15.3 102460 40
2009-04-23 10:55 51°13.662 2°55.959 0.8 287 15.5 102460 40
2009-04-23 10:56 51°13.662 2°55.959 1.5 81 15.4 102460 39
2009-04-23 10:57 51°13.663 2°55.959 0.7 76 15.2 102460 40
2009-04-23 10:58 51°13.663 2°55.959 0.2 73 15.2 102460 42
2009-04-23 10:59 51°13.663 2°55.959 1.4 278 15.3 102460 43
2009-04-23 11:00 51°13.663 2°55.959 2.3 82 15.4 102450 44
2009-04-23 11:01 51°13.664 2°55.959 2.9 77 15 102450 44
2009-04-23 11:02 51°13.664 2°55.96 3.2 73 14.4 102450 46
2009-04-23 11:03 51°13.664 2°55.96 2.5 82 14.2 102450 48
2009-04-23 11:04 51°13.663 2°55.959 2.8 74 14 102450 48
2009-04-23 11:05 51°13.662 2°55.958 2.6 82 13.6 102450 48
2009-04-23 11:06 51°13.663 2°55.959 2.2 80 13.5 102450 49
2009-04-23 11:07 51°13.663 2°55.959 3.6 75 13.3 102440 49
2009-04-23 11:08 51°13.662 2°55.959 3.3 82 13.1 102450 50
2009-04-23 11:08 51°13.662 2°55.959 2.4 76 13 102440 51
2009-04-23 11:10 51°13.663 2°55.959 3.1 286 13.2 102440 50
2009-04-23 11:11 51°13.662 2°55.959 3.4 282 13.3 102440 50
2009-04-23 11:11 51°13.662 2°55.959 3.1 74 13.3 102440 49
2009-04-23 11:13 51°13.662 2°55.959 2 282 13.2 102440 51
2009-04-23 11:14 51°13.662 2°55.959 2.6 83 13.2 102440 51
2009-04-23 11:15 51°13.663 2°55.959 2.9 79 13.1 102440 50
2009-04-23 11:16 51°13.663 2°55.959 3.7 81 13.1 102440 52
2009-04-23 11:17 51°13.662 2°55.959 3 74 12.9 102440 51
2009-04-23 11:18 51°13.663 2°55.959 3.4 81 12.8 102440 52
2009-04-23 11:19 51°13.663 2°55.959 3.5 81 12.7 102440 52
2009-04-23 11:20 51°13.663 2°55.96 4.1 81 12.6 102440 54
2009-04-23 11:21 51°13.663 2°55.959 2.9 74 12.6 102440 53
2009-04-23 11:22 51°13.662 2°55.96 3.2 81 12.7 102440 54
2009-04-23 11:23 51°13.663 2°55.956 2.4 82 12.6 102440 54
2009-04-23 11:24 51°13.68 2°55.899 5.5 79 12.6 102440 55
2009-04-23 11:25 51°13.705 2°55.824 4.8 75 12.4 102440 55
2009-04-23 11:26 51°13.741 2°55.747 4.9 79 12 102440 56
2009-04-23 11:27 51°13.792 2°55.678 4.4 82 11.8 102440 59
2009-04-23 11:28 51°13.853 2°55.627 4.9 80 11.8 102440 57
2009-04-23 11:29 51°13.901 2°55.611 5 76 11.9 102440 60
2009-04-23 11:30 51°13.928 2°55.617 4.1 42 11.9 102440 57
2009-04-23 11:31 51°13.928 2°55.612 4.3 26 11.7 102440 58
2009-04-23 11:32 51°13.934 2°55.592 4.8 353 11.7 102430 59
2009-04-23 11:33 51°13.99 2°55.534 6.8 285 11.6 102430 58
2009-04-23 11:33 51°14.084 2°55.452 7.1 282 11.7 102430 57
2009-04-23 11:35 51°14.193 2°55.341 7.3 284 11.6 102430 59
2009-04-23 11:35 51°14.291 2°55.191 8 278 11.5 102430 59
2009-04-23 11:36 51°14.385 2°55.006 7.9 280 11.2 102430 61
2009-04-23 11:38 51°14.433 2°54.791 5.3 2 11 102420 60
2009-04-23 11:39 51°14.382 2°54.563 3.5 -999 11 102430 61
2009-04-23 11:40 51°14.298 2°54.332 4.3 359 10.9 102430 61
2009-04-23 11:41 51°14.214 2°54.094 4.3 280 10.9 102430 63
2009-04-23 11:42 51°14.126 2°53.862 4.7 355 10.9 102430 62
2009-04-23 11:43 51°14.036 2°53.634 4.6 352 10.9 102430 63
2009-04-23 11:44 51°13.949 2°53.405 4.8 355 10.8 102430 60
2009-04-23 11:45 51°13.863 2°53.175 5.6 355 10.8 102430 61
2009-04-23 11:46 51°13.777 2°52.946 5.1 352 10.8 102430 62
2009-04-23 11:47 51°13.692 2°52.715 5.8 359 10.8 102440 62
2009-04-23 11:48 51°13.609 2°52.479 4.9 358 10.7 102430 62
2009-04-23 11:49 51°13.524 2°52.241 4.5 -999 10.7 102440 63
2009-04-23 11:50 51°13.433 2°52.007 4.8 2 10.7 102440 65
2009-04-23 11:51 51°13.342 2°51.77 5 358 10.7 102440 63
2009-04-23 11:51 51°13.256 2°51.535 5.6 359 10.7 102440 64
2009-04-23 11:52 51°13.165 2°51.301 4.7 358 10.7 102440 64
2009-04-23 11:54 51°13.072 2°51.065 5.2 359 10.7 102440 65
2009-04-23 11:55 51°12.984 2°50.827 5.2 359 10.7 102430 65
2009-04-23 11:56 51°12.898 2°50.583 4.9 358 10.6 102440 62
2009-04-23 11:57 51°12.807 2°50.342 5.1 1 10.6 102430 64
2009-04-23 11:58 51°12.712 2°50.103 5.3 -999 10.6 102430 65
2009-04-23 11:59 51°12.618 2°49.864 4.8 -999 10.6 102430 66
2009-04-23 12:00 51°12.548 2°49.606 6 -999 10.6 102430 67
2009-04-23 12:01 51°12.495 2°49.338 6.2 359 10.6 102430 67
2009-04-23 12:02 51°12.442 2°49.068 6.6 358 10.5 102430 66
2009-04-23 12:03 51°12.386 2°48.8 7.2 356 10.5 102430 67
2009-04-23 12:04 51°12.327 2°48.535 6.4 357 10.5 102420 66
2009-04-23 12:05 51°12.264 2°48.275 6.7 358 10.5 102430 66
2009-04-23 12:06 51°12.205 2°48.012 7.1 356 10.5 102420 66
2009-04-23 12:07 51°12.15 2°47.748 6.8 358 10.5 102430 67
2009-04-23 12:08 51°12.097 2°47.498 5.4 7 10.5 102430 67
2009-04-23 12:09 51°12.057 2°47.395 2.3 75 10.4 102440 67
2009-04-23 12:10 51°12.004 2°47.392 2.4 81 10.5 102440 68
2009-04-23 12:11 51°11.951 2°47.369 3.4 43 10.5 102430 67
2009-04-23 12:12 51°11.913 2°47.327 3.6 35 10.6 102430 66
2009-04-23 12:13 51°11.873 2°47.268 3.2 32 10.6 102430 66
2009-04-23 12:14 51°11.828 2°47.201 2.8 33 10.7 102430 67
2009-04-23 12:15 51°11.784 2°47.134 3.6 34 10.7 102430 66
2009-04-23 12:16 51°11.748 2°47.063 3.5 29 10.7 102420 66
2009-04-23 12:17 51°11.715 2°46.991 3.3 26 10.7 102420 67
2009-04-23 12:18 51°11.682 2°46.919 4.1 33 10.8 102420 67
2009-04-23 12:19 51°11.649 2°46.848 3.7 33 10.8 102420 66
2009-04-23 12:20 51°11.618 2°46.785 3.7 34 10.8 102420 66
2009-04-23 12:21 51°11.589 2°46.724 3.8 40 10.8 102420 68
2009-04-23 12:22 51°11.56 2°46.664 4.2 36 10.8 102420 67
2009-04-23 12:23 51°11.531 2°46.604 3.7 34 10.8 102420 65
2009-04-23 12:24 51°11.502 2°46.544 3.4 36 10.8 102420 68
2009-04-23 12:25 51°11.471 2°46.485 3.1 32 10.8 102420 67
2009-04-23 12:26 51°11.441 2°46.426 3.8 34 10.8 102420 67
2009-04-23 12:27 51°11.411 2°46.368 3.8 34 10.8 102420 66
2009-04-23 12:28 51°11.38 2°46.31 3.2 42 10.8 102420 67
2009-04-23 12:29 51°11.349 2°46.253 3.2 38 10.8 102420 68
2009-04-23 12:30 51°11.319 2°46.195 3.8 35 10.8 102420 67
2009-04-23 12:31 51°11.291 2°46.133 4.4 34 10.8 102420 67
2009-04-23 12:32 51°11.274 2°46.062 4.7 29 10.8 102410 66
2009-04-23 12:33 51°11.27 2°45.984 4.7 19 10.8 102410 67
2009-04-23 12:34 51°11.278 2°45.905 4.9 20 10.8 102410 67
2009-04-23 12:35 51°11.287 2°45.825 4.4 17 10.8 102410 67
2009-04-23 12:36 51°11.295 2°45.744 4.4 18 10.8 102410 68
2009-04-23 12:37 51°11.301 2°45.665 5.2 23 10.8 102410 67
2009-04-23 12:38 51°11.306 2°45.585 5 20 10.8 102410 67
2009-04-23 12:39 51°11.311 2°45.505 5.2 24 10.8 102410 66
2009-04-23 12:40 51°11.316 2°45.423 3.9 24 10.8 102410 68
2009-04-23 12:41 51°11.322 2°45.341 4.2 25 10.8 102410 68
2009-04-23 12:42 51°11.328 2°45.26 4.4 24 10.8 102410 68
2009-04-23 12:43 51°11.336 2°45.18 4.8 25 10.8 102410 68
2009-04-23 12:44 51°11.344 2°45.102 5.4 24 10.8 102410 69
2009-04-23 12:45 51°11.349 2°45.026 4.8 18 10.8 102410 69
2009-04-23 12:46 51°11.355 2°44.953 4.8 16 10.8 102410 69
2009-04-23 12:47 51°11.362 2°44.882 4.6 14 10.8 102410 68
2009-04-23 12:48 51°11.38 2°44.816 4.6 6 10.8 102410 68
2009-04-23 12:49 51°11.409 2°44.778 6 2 10.7 102410 69
2009-04-23 12:50 51°11.447 2°44.757 6.6 278 10.7 102410 69
2009-04-23 12:51 51°11.518 2°44.749 7.9 285 10.6 102400 68
2009-04-23 12:52 51°11.573 2°44.795 7.3 278 10.7 102400 68
2009-04-23 12:53 51°11.619 2°44.856 7.1 283 10.8 102400 67
2009-04-23 12:54 51°11.668 2°44.955 7.5 284 11 102400 67
2009-04-23 12:55 51°11.694 2°45.04 5.3 278 11.1 102400 65
2009-04-23 12:56 51°11.711 2°45.108 5.7 280 11.1 102400 66
2009-04-23 12:57 51°11.725 2°45.163 5.8 286 11.2 102400 67
2009-04-23 12:58 51°11.735 2°45.209 6.5 277 11.2 102400 68
2009-04-23 12:59 51°11.744 2°45.25 5.8 279 11.2 102400 67
2009-04-23 13:00 51°11.753 2°45.29 5.6 283 11.3 102400 68
2009-04-23 13:01 51°11.758 2°45.387 6.9 280 11.4 102400 68
2009-04-23 13:02 51°11.744 2°45.542 8 285 11.4 102390 68
2009-04-23 13:03 51°11.725 2°45.723 6.6 281 11.4 102390 68
2009-04-23 13:04 51°11.711 2°45.909 7.2 284 11.4 102390 68
2009-04-23 13:05 51°11.709 2°46.098 8.3 283 11.3 102390 68
2009-04-23 13:06 51°11.708 2°46.29 8.2 279 11.3 102380 69
2009-04-23 13:07 51°11.706 2°46.48 7.5 280 11.2 102380 69
2009-04-23 13:08 51°11.707 2°46.668 7.1 285 11.2 102380 69
2009-04-23 13:09 51°11.726 2°46.852 8.9 284 11.1 102380 69
2009-04-23 13:10 51°11.749 2°47.037 7.6 279 11.1 102380 69
2009-04-23 13:11 51°11.769 2°47.22 7.2 285 11 102380 68
2009-04-23 13:12 51°11.788 2°47.405 7.5 280 11 102380 69
2009-04-23 13:13 51°11.808 2°47.59 8.4 283 10.9 102380 69
2009-04-23 13:14 51°11.836 2°47.772 8.7 280 10.9 102380 69
2009-04-23 13:15 51°11.871 2°47.952 8.4 280 10.9 102380 70
2009-04-23 13:16 51°11.904 2°48.134 7.5 284 10.9 102380 68
2009-04-23 13:17 51°11.945 2°48.31 7.5 280 11 102380 69
2009-04-23 13:18 51°11.993 2°48.482 8.3 287 11.1 102380 70
2009-04-23 13:19 51°12.041 2°48.654 7.4 279 11.1 102380 70
2009-04-23 13:20 51°12.086 2°48.828 8.6 285 11.1 102380 69
2009-04-23 13:21 51°12.131 2°49.004 7.8 283 11.1 102380 69
2009-04-23 13:22 51°12.175 2°49.179 6.9 286 11.1 102380 68
2009-04-23 13:23 51°12.226 2°49.349 8.6 282 11.1 102380 67
2009-04-23 13:24 51°12.285 2°49.511 8.4 279 11.1 102380 66
2009-04-23 13:25 51°12.343 2°49.674 6.9 278 11.2 102380 68
2009-04-23 13:26 51°12.404 2°49.836 8.4 282 11.2 102380 68
2009-04-23 13:27 51°12.47 2°49.99 8.1 278 11.2 102380 69
2009-04-23 13:28 51°12.535 2°50.144 8 285 11.3 102380 68
2009-04-23 13:29 51°12.601 2°50.298 9.2 282 11.3 102380 68
2009-04-23 13:30 51°12.667 2°50.452 8.2 279 11.3 102380 68
2009-04-23 13:31 51°12.732 2°50.606 8.1 284 11.3 102370 66
2009-04-23 13:32 51°12.797 2°50.76 9.1 283 11.3 102370 66
2009-04-23 13:33 51°12.863 2°50.914 8 278 11.3 102370 65
2009-04-23 13:34 51°12.928 2°51.07 8.1 281 11.3 102370 66
2009-04-23 13:35 51°12.994 2°51.225 8.4 285 11.4 102370 67
2009-04-23 13:36 51°13.059 2°51.379 8.2 281 11.4 102370 68
2009-04-23 13:37 51°13.125 2°51.533 8.1 280 11.5 102370 68
2009-04-23 13:38 51°13.191 2°51.686 9.2 281 11.5 102370 67
2009-04-23 13:39 51°13.257 2°51.839 9.1 279 11.5 102370 65
2009-04-23 13:40 51°13.322 2°51.993 7.9 279 11.5 102370 66
2009-04-23 13:41 51°13.388 2°52.146 8.6 278 11.5 102370 68
2009-04-23 13:42 51°13.455 2°52.3 8.8 281 11.5 102370 67
2009-04-23 13:43 51°13.525 2°52.464 8.3 280 11.5 102370 67
2009-04-23 13:44 51°13.6 2°52.635 9.2 286 11.5 102370 66
2009-04-23 13:45 51°13.676 2°52.808 7.6 279 11.5 102370 67
2009-04-23 13:46 51°13.755 2°52.978 9.1 283 11.5 102370 67
2009-04-23 13:47 51°13.83 2°53.152 9.2 286 11.5 102370 69
2009-04-23 13:48 51°13.906 2°53.326 9.2 280 11.5 102360 68
2009-04-23 13:49 51°13.981 2°53.502 9.5 285 11.6 102360 69
2009-04-23 13:50 51°14.05 2°53.684 8.8 281 11.5 102360 68
2009-04-23 13:51 51°14.12 2°53.865 9.5 285 11.5 102360 69
2009-04-23 13:52 51°14.195 2°54.042 7.8 287 11.5 102360 71
2009-04-23 13:53 51°14.266 2°54.223 9.2 284 11.5 102360 69
2009-04-23 13:54 51°14.325 2°54.415 9.5 278 11.4 102360 68
2009-04-23 13:55 51°14.372 2°54.612 8.6 284 11.4 102360 68
2009-04-23 13:56 51°14.38 2°54.811 8.7 281 11.3 102370 69
2009-04-23 13:57 51°14.35 2°55 7.6 284 11.3 102360 69
2009-04-23 13:58 51°14.287 2°55.182 4.9 279 11.3 102370 68
2009-04-23 13:59 51°14.206 2°55.327 4.7 279 11.3 102370 69
2009-04-23 14:00 51°14.11 2°55.426 4.5 286 11.5 102370 70
2009-04-23 14:01 51°14.004 2°55.504 4.1 284 11.6 102370 68
2009-04-23 14:02 51°13.897 2°55.58 2.3 280 11.6 102370 67
2009-04-23 14:03 51°13.801 2°55.654 3.6 285 11.7 102370 67
2009-04-23 14:04 51°13.736 2°55.748 1.9 284 11.8 102370 65
2009-04-23 14:05 51°13.688 2°55.847 2.1 284 12 102370 64
2009-04-23 14:06 51°13.668 2°55.932 3.4 277 12.1 102360 63
2009-04-23 14:07 51°13.662 2°55.957 5 80 12.2 102370 61